Location: Chippewa Lake
(41.0698°N, 81.9010°W)
Time: 02:07:59
(UTC+00:00)

Okean 1 Rocket - Pass Details

Date: 09 May 2021
Orbit: 605 x 635 km, 82.5° (Epoch: 24 June)

Event Time Altitude Azimuth Distance (km) Brightness Sun altitude
Rises 07:38:41 0° 343° (NNW) 2,907 7.0 -23.7°
Reaches altitude 10° 07:41:02 10° 336° (NNW) 1,990 6.0 -23.4°
Enters shadow 07:44:09 33° 298° (WNW) 1,040 4.1 -23.1°
